GFSNW_con_sbcape_072.txt.gz
CAPE
63 63 62 60 63 66 54 54 1 2 0 11 1 14 11 4 0 0 0 0 0 0 0 0 5 0 0 0 0 0 0 0 0 0 0 0 0 0 1 8 0 0 0 0
56 53 52 53 65 80 40 28 8 4 0 3 4 1 7 13 10 0 0 0 0 0 0 0 6 0 0 0 0 0 0 0 0 0 0 0 0 0 0 21 0 0 0 0
71 70 69 70 78 95 41 1 1 18 10 0 5 6 8 15 12 1 0 0 0 0 0 0 0 0 20 6 1 0 0 0 0 0 0 0 0 0 0 8 11 0 0 6
94 89 84 81 79 88 64 1 0 0 7 8 9 8 3 14 22 13 1 0 0 0 0 0 0 57 19 2 0 0 0 0 0 0 0 0 0 0 0 0 0 3 0 0
72 82 60 67 62 64 61 0 3 0 0 6 15 20 1 12 11 11 0 0 0 0 0 0 0 43 0 26 0 0 0 0 0 0 0 0 0 0 0 0 0 0 0 0
73 67 70 57 62 71 25 0 0 0 0 4 4 1 14 3 15 0 0 0 0 0 0 0 127 45 59 7 0 0 0 0 0 0 0 0 0 0 0 0 0 0 0 0
84 83 72 61 77 73 24 0 6 3 0 1 4 8 9 12 6 0 0 0 0 0 50 71 151 91 58 7 0 0 0 0 0 0 0 0 0 0 0 0 0 0 0 0
88 71 80 70 63 78 41 0 11 8 0 0 6 8 0 0 0 0 0 0 0 0 0 27 8 0 0 0 0 8 0 0 0 2 0 0 0 0 0 0 0 0 0 0
76 70 68 84 81 98 70 1 0 28 1 0 0 0 0 0 0 0 0 0 0 0 13 47 2 1 9 15 0 7 0 0 0 0 0 0 0 0 0 0 0 0 0 0
51 76 65 68 86 115 67 3 15 8 6 0 0 0 0 0 0 0 0 0 0 0 0 14 0 5 12 16 0 3 0 0 2 0 16 13 0 0 0 0 0 0 0 0
36 74 64 64 58 103 79 12 1 1 3 0 0 0 0 0 0 0 0 0 0 0 0 0 0 1 0 0 3 6 1 0 0 0 0 5 0 0 9 0 0 0 0 1
41 72 66 59 74 89 73 22 13 0 21 1 10 0 0 0 0 0 0 0 0 0 0 1 0 15 0 0 0 7 1 0 4 0 0 0 6 29 0 0 0 1 0 3
27 78 87 76 94 106 46 9 8 24 8 12 9 21 18 0 17 0 0 0 0 0 0 12 29 23 0 6 0 0 0 22 27 44 19 53 21 4 6 0 0 0 0 0
45 88 90 77 89 90 23 17 4 6 3 1 15 11 54 89 42 28 0 0 12 4 9 23 30 1 0 0 0 0 0 94 42 12 33 42 0 5 0 2 0 0 0 0
61 72 79 79 75 66 6 9 16 12 2 0 12 1 0 0 17 31 33 69 22 12 19 2 21 6 39 0 0 2 48 161 121 48 84 54 22 5 11 2 0 0 0 0
43 44 51 47 32 49 61 58 20 43 68 0 0 0 0 0 3 27 63 23 8 16 0 5 4 34 21 4 0 0 0 0 9 0 0 6 6 0 0 0 0 0 0 0
34 39 34 29 24 20 1 0 0 14 0 0 0 1 1 0 0 0 5 1 0 4 13 14 47 50 14 0 0 0 0 0 0 0 1 16 30 52 0 0 0 0 0 0
41 36 27 34 19 9 8 0 0 0 0 0 0 0 5 0 3 1 0 3 0 0 2 7 35 1 6 0 2 0 0 0 0 0 0 0 2 0 0 0 0 0 0 0
8 2 10 7 6 3 0 3 0 0 0 0 0 0 20 0 0 0 0 0 0 0 0 5 16 8 1 13 6 7 3 1 0 0 0 0 0 0 0 0 0 0 0 0
0 0 0 0 0 0 0 0 0 0 0 0 0 0 0 0 0 0 0 0 2 0 0 0 0 2 8 5 7 5 2 0 0 0 0 0 0 0 0 0 0 0 0 0
0 0 0 0 0 0 0 0 0 0 0 0 0 0 0 0 0 0 0 0 0 8 0 3 0 3 6 4 7 5 4 2 0 1 1 0 0 0 0 0 0 0 0 0
0 0 0 0 0 0 0 0 0 0 0 0 0 0 0 0 0 0 0 0 0 0 0 0 1 9 3 2 3 2 4 3 1 1 2 2 1 1 2 2 2 3 2 0
0 0 0 0 0 0 0 0 0 1 1 1 0 0 0 0 0 0 0 0 0 0 0 1 7 3 3 3 1 2 2 1 1 1 2 2 3 3 2 2 1 0 0 0
0 0 0 0 0 0 0 1 0 2 1 1 1 0 0 0 0 0 0 0 0 0 0 0 5 4 7 4 7 2 3 2 2 1 0 0 0 0 0 0 0 0 0 0
0 0 0 0 0 0 1 1 0 0 1 1 0 0 0 0 0 0 0 0 0 0 0 4 3 5 3 3 4 2 2 0 0 0 0 0 0 0 0 0 0 0 0 0
0 0 0 0 0 0 0 0 0 0 0 0 0 0 0 0 0 0 0 0 0 0 0 1 4 1 1 2 3 2 1 1 0 0 1 0 0 0 0 0 0 0 0 0
0 0 0 0 0 0 0 1 1 1 0 0 0 0 0 2 0 0 2 0 0 0 2 1 0 1 0 0 1 0 1 0 0 1 2 2 3 1 1 1 1 2 1 0

GFSNW_con_sbcape_075.txt.gz
CAPE
70 85 87 94 94 80 71 50 2 9 0 0 5 0 0 0 0 0 0 0 0 0 0 0 0 0 0 0 0 0 0 0 0 0 0 0 0 0 0 0 3 0 0 0
83 86 91 93 91 81 54 14 8 11 0 0 2 9 1 0 1 0 0 2 0 0 0 0 0 0 0 0 0 0 0 0 0 0 0 0 0 0 0 0 0 0 0 0
82 79 72 67 68 83 43 1 1 11 7 1 0 14 2 0 0 0 0 0 0 0 0 0 0 0 1 44 4 3 0 0 0 0 0 0 0 0 0 0 0 0 0 0
80 73 68 67 67 74 66 1 1 1 0 2 3 3 7 4 3 0 0 0 0 0 1 0 0 0 10 0 3 0 0 0 0 0 0 0 0 0 0 0 0 0 0 0
83 89 92 74 74 85 47 0 2 4 0 13 12 16 6 10 1 6 0 5 0 0 0 0 0 0 14 16 32 0 0 0 0 0 0 0 0 0 0 0 0 0 0 0
62 57 51 43 52 64 24 12 0 7 3 11 5 2 11 3 10 0 0 0 0 0 0 0 0 0 3 105 43 2 3 0 0 0 0 0 0 0 0 0 0 0 0 0
67 62 60 68 63 69 41 19 8 6 3 7 3 6 4 9 1 0 0 0 0 0 0 0 0 0 0 20 33 22 14 1 0 0 0 0 0 0 0 0 0 0 0 0
76 69 69 73 81 88 28 1 12 14 2 5 4 7 0 0 3 0 0 0 0 0 0 0 0 0 21 2 0 0 6 17 1 0 0 0 0 0 0 0 0 0 0 0
78 74 79 84 81 85 48 31 13 16 19 3 0 2 1 0 0 0 0 0 0 0 0 2 2 0 0 9 0 0 3 22 3 0 0 0 0 0 0 0 0 0 0 0
64 65 63 82 78 92 44 42 22 6 5 0 0 1 0 0 0 0 0 0 0 0 0 6 0 1 20 2 0 32 0 4 13 0 0 0 0 0 0 0 0 0 0 0
58 66 59 61 87 86 68 29 24 1 3 0 0 0 0 0 0 0 0 0 0 0 0 0 0 0 0 0 0 1 13 19 1 0 0 5 0 1 9 0 0 0 0 0
62 68 75 46 93 82 92 36 5 9 11 12 0 1 0 0 0 0 0 0 0 0 0 0 0 7 0 0 0 0 12 0 0 17 0 0 7 43 0 0 0 0 0 0
44 28 73 40 87 92 79 8 20 34 14 0 0 5 0 0 0 0 0 0 0 0 0 0 0 3 0 2 0 0 0 19 27 8 10 35 87 35 53 25 4 0 0 0
41 41 53 37 101 79 58 9 14 0 0 1 5 27 11 14 1 0 0 0 4 0 0 0 0 2 1 0 0 0 0 79 117 40 12 67 8 6 7 10 21 0 0 0
57 52 40 80 75 93 14 2 0 0 0 0 4 10 0 5 18 36 34 57 26 6 23 0 7 1 34 0 6 0 0 2 12 0 4 74 5 6 1 12 25 0 0 0
36 50 72 81 95 29 6 33 5 0 0 1 9 1 0 0 2 11 17 25 6 0 4 2 0 14 15 28 0 0 0 0 0 0 0 0 22 0 0 5 0 0 0 0
41 36 45 60 5 0 9 0 0 6 0 0 0 9 1 0 0 0 0 0 0 0 0 8 5 9 0 0 0 0 0 0 0 0 0 11 30 36 0 0 0 0 0 0
26 35 12 16 6 35 40 3 11 0 15 17 0 0 6 0 0 4 0 0 0 0 0 0 1 0 2 3 4 2 2 0 0 0 0 0 0 0 0 0 0 0 0 0
28 28 19 4 10 9 15 2 0 4 0 0 0 0 3 0 0 0 0 0 0 0 0 0 0 0 0 3 5 5 4 7 4 0 0 0 0 0 0 0 0 0 0 0
8 8 5 1 2 0 9 3 0 0 0 0 0 0 1 0 0 0 0 0 0 0 0 0 0 5 3 3 5 6 6 4 3 3 1 0 0 0 0 0 0 0 0 0
0 2 1 12 0 0 0 0 0 0 0 0 0 0 0 0 0 0 0 0 0 1 0 0 2 3 5 1 5 4 4 8 3 4 4 2 1 2 2 1 0 0 0 0
0 0 0 0 0 0 0 0 0 0 1 0 0 0 0 0 0 0 0 0 0 0 0 0 1 4 4 3 3 3 5 2 1 2 1 2 1 1 2 2 2 3 2 0
0 0 0 0 0 0 0 0 0 0 0 1 0 1 0 0 0 0 0 0 0 0 0 2 4 0 2 3 2 1 1 1 1 1 1 0 1 1 1 2 1 0 0 0
0 0 0 0 0 0 0 0 0 1 1 0 0 0 0 0 0 0 0 1 0 0 0 1 4 3 3 3 2 0 0 1 2 1 0 1 0 0 0 0 0 0 0 0
0 0 0 0 0 0 0 1 0 1 3 1 0 0 0 0 0 0 0 0 0 0 0 2 1 4 3 3 2 0 0 0 0 0 0 0 0 0 0 0 0 0 0 0
0 0 0 0 0 0 0 0 0 1 1 0 0 0 0 0 0 0 0 0 0 0 1 2 5 3 2 1 2 3 2 1 1 0 1 0 0 0 0 0 0 0 0 0
0 0 0 0 0 0 0 0 0 0 0 0 0 0 0 0 0 0 1 0 0 0 0 1 0 0 0 0 0 0 0 0 2 1 1 1 1 0 0 0 1 1 1 0

GFSNW_con_sbcape_078.txt.gz
CAPE
63 59 69 79 84 124 116 73 23 61 11 41 2 4 0 0 0 0 0 0 0 0 0 0 0 0 0 0 0 0 0 0 0 0 0 0 0 0 0 0 0 0 0 0
76 76 82 85 91 136 91 69 15 72 26 14 0 0 4 1 0 0 0 0 0 0 0 0 0 0 0 3 5 2 2 1 0 0 0 0 0 0 0 0 0 0 0 0
91 96 90 88 67 119 92 3 1 16 37 1 4 2 3 12 0 0 0 2 0 0 0 0 0 0 0 0 2 64 32 5 0 0 0 0 0 0 0 0 0 0 0 0
88 94 103 91 79 96 113 0 1 0 0 1 3 1 0 12 4 0 0 0 0 0 0 0 0 0 0 0 55 72 33 1 0 0 0 0 0 0 0 0 0 0 0 0
77 72 82 100 93 77 40 0 4 7 0 0 5 6 5 7 4 0 0 0 0 0 0 0 0 0 0 0 48 31 38 6 0 0 0 0 0 0 0 0 0 0 0 0
63 52 65 76 93 77 22 10 0 7 0 0 4 2 3 5 9 0 0 0 0 0 0 0 0 0 0 0 0 27 48 3 0 0 0 0 0 0 0 0 0 0 0 0
64 82 76 67 64 70 18 19 8 22 1 6 7 9 5 10 1 0 0 0 0 0 0 0 0 0 0 0 0 0 15 1 0 0 0 0 0 0 0 0 0 0 0 0
81 74 76 79 83 44 5 20 6 7 2 13 13 18 2 0 6 2 0 0 0 0 0 0 0 0 0 0 0 0 23 39 0 1 1 0 0 0 0 0 0 0 0 0
86 79 75 69 85 74 33 14 7 29 4 10 19 14 3 0 1 2 0 0 0 0 0 1 13 6 1 5 32 0 0 38 55 1 2 16 0 0 0 0 0 0 0 0
72 94 88 78 84 111 41 12 0 19 6 9 16 14 7 0 0 0 0 0 0 1 0 12 11 3 6 2 41 12 30 21 73 23 52 0 0 2 0 0 0 0 0 0
64 67 82 84 87 115 69 28 2 8 5 5 4 0 0 0 0 0 0 0 0 0 1 13 4 0 1 3 0 18 12 2 9 0 2 12 3 42 8 0 0 0 0 0
51 57 51 67 73 81 107 6 36 15 40 20 5 1 0 0 0 0 0 0 0 0 0 0 0 0 0 0 0 0 0 0 7 3 12 0 0 91 14 0 0 0 0 0
45 59 69 59 77 87 82 4 48 22 28 2 1 1 0 0 0 0 0 0 0 0 0 0 0 0 0 0 0 0 0 2 14 17 0 6 8 13 79 22 7 18 5 1
51 54 63 44 59 59 75 7 21 34 5 10 0 0 0 0 0 0 0 0 4 0 0 0 0 3 0 0 0 0 0 0 0 0 0 0 0 1 24 39 28 25 0 0
52 47 71 77 67 61 17 18 17 1 5 0 0 57 24 40 0 0 0 22 23 13 21 0 9 0 12 0 0 0 0 0 0 0 0 0 0 0 0 0 4 25 0 2
20 42 49 40 50 22 13 6 5 4 0 27 2 41 64 40 16 0 0 0 4 2 0 0 0 0 4 6 0 0 0 0 0 0 0 0 0 0 0 0 0 0 0 0
35 35 37 32 32 3 6 6 0 6 0 2 0 12 9 19 3 0 2 4 6 12 1 0 0 5 0 0 0 0 0 0 0 0 0 0 0 0 0 0 0 0 0 0
47 44 8 13 16 21 18 1 0 0 0 2 2 1 3 11 6 3 3 0 0 0 2 0 0 0 0 0 4 3 1 0 0 0 0 0 0 0 0 0 0 0 0 0
31 30 9 3 8 7 8 12 9 2 0 0 0 1 2 0 0 0 0 0 0 0 0 0 0 0 1 5 5 3 3 6 8 2 0 0 0 0 0 0 0 0 0 0
0 0 0 0 2 6 18 25 11 4 3 1 0 0 2 0 0 0 0 0 0 0 0 0 0 3 6 3 5 2 4 4 5 4 0 1 3 1 3 0 0 0 0 0
1 4 1 16 0 8 7 0 0 0 0 0 0 0 1 0 0 0 0 0 0 0 0 0 2 2 3 3 2 3 3 3 3 5 3 2 1 2 1 0 1 0 0 2
0 0 0 0 0 0 0 0 0 0 7 1 2 1 0 0 0 0 0 0 0 0 3 0 0 5 2 2 2 1 2 3 1 1 1 2 2 1 0 1 2 2 1 0
0 0 0 0 0 0 0 0 0 0 1 0 0 0 0 0 0 0 0 0 1 0 0 0 4 4 1 2 1 1 0 0 1 1 1 1 2 3 1 2 2 1 0 0
0 0 0 0 0 0 0 0 0 2 2 1 0 0 0 0 0 0 0 0 0 0 0 0 4 5 3 2 2 1 3 2 2 2 1 0 0 0 0 0 0 0 0 0
0 0 0 0 0 0 0 0 0 2 2 1 0 0 0 0 0 0 0 0 0 0 0 0 3 4 3 3 3 2 3 0 0 0 0 0 0 0 0 0 0 0 0 0
0 0 0 0 0 0 0 0 0 1 0 0 0 0 0 0 0 0 0 0 0 0 0 1 1 0 0 1 2 3 3 1 0 0 1 1 0 0 0 0 0 0 0 0
0 0 0 0 0 0 0 0 0 0 0 0 0 0 0 0 0 0 0 0 0 0 0 0 0 0 0 0 0 0 0 0 1 0 1 0 1 0 0 0 0 1 0 0

GFSNW_con_sbcape_084.txt.gz
CAPE
45 23 23 37 47 79 69 59 64 50 335 39 10 52 11 1 12 0 0 0 1 0 0 0 0 0 0 0 0 2 18 42 0 0 0 0 0 0 0 1 0 8 4 0
70 84 58 62 74 87 111 59 23 112 264 109 26 46 65 31 21 11 3 0 0 2 3 2 0 0 0 0 0 0 0 29 50 4 0 0 0 0 0 1 15 8 58 2
80 96 95 89 100 135 207 67 92 95 147 77 127 55 21 101 13 5 2 30 17 17 20 12 4 0 0 1 0 0 0 0 2 39 26 17 4 0 1 8 17 0 0 0
66 76 87 99 106 136 164 41 45 37 65 28 18 99 47 47 47 3 14 11 18 24 21 19 26 11 1 1 5 10 12 5 0 0 0 0 0 0 0 0 0 33 0 0
44 45 56 79 69 116 58 1 52 71 40 41 46 51 40 67 37 47 25 16 3 17 37 23 11 9 19 11 5 3 4 36 23 10 0 0 5 0 0 1 0 8 9 5
54 47 54 64 56 68 23 13 24 131 29 94 116 73 94 76 70 29 29 20 18 17 16 8 20 18 17 19 16 18 9 14 6 8 37 29 3 42 59 20 2 0 9 10
53 68 38 17 41 53 38 26 37 65 54 96 57 40 63 45 26 39 27 15 18 9 0 12 18 20 11 17 11 19 11 18 41 26 29 10 0 0 43 31 25 3 1 1
75 68 63 62 49 26 32 28 55 61 86 67 92 65 57 81 102 43 13 21 5 7 15 57 20 23 11 0 0 2 12 18 41 20 66 24 0 0 18 98 71 68 39 38
67 75 70 74 66 38 25 31 40 99 171 120 56 103 51 84 67 91 24 3 7 12 43 91 30 24 11 7 8 0 5 23 81 39 55 17 3 0 6 8 238 174 199 210
62 58 65 67 75 85 42 10 24 43 43 22 48 62 92 82 62 55 31 34 17 21 49 70 45 20 0 2 7 2 20 33 41 21 40 47 49 51 22 146 105 135 156 238
53 50 48 57 76 84 57 23 11 7 19 26 33 38 41 62 90 58 63 45 10 7 101 72 41 14 5 0 0 88 19 29 30 20 65 23 1 18 49 33 196 160 129 192
60 56 69 41 71 83 86 51 51 16 12 16 9 2 28 68 75 74 77 10 14 40 51 61 49 57 48 2 17 0 1 83 58 77 42 6 0 14 22 23 23 5 112 308
62 60 74 72 75 91 86 75 34 18 7 14 24 2 0 26 58 135 42 56 28 45 39 44 57 26 14 36 7 11 0 0 31 0 7 1 0 0 0 0 0 3 4 2
55 49 66 66 50 85 56 59 33 46 38 23 14 0 0 41 59 44 85 38 39 57 17 51 84 47 24 37 27 13 13 1 2 0 0 6 3 0 0 0 0 0 0 40
43 48 67 54 60 72 31 68 42 100 52 23 2 0 0 4 41 38 24 22 56 120 55 90 95 37 49 44 39 20 26 17 28 57 3 2 1 0 0 0 0 0 0 15
34 38 54 46 47 62 23 5 32 69 88 41 44 0 54 0 4 48 35 66 33 39 33 62 92 57 54 59 43 5 1 2 4 5 4 0 0 4 0 0 0 0 0 0
37 38 33 57 47 0 14 28 3 49 151 86 55 71 21 65 13 41 111 61 29 45 58 82 78 64 55 31 84 4 0 0 3 1 1 0 2 3 1 0 0 0 0 0
51 35 40 36 13 22 74 6 6 10 30 49 81 46 59 71 91 77 86 76 46 20 66 78 73 74 93 20 3 1 1 0 1 0 0 6 5 0 0 0 0 0 0 0
13 17 26 24 28 17 25 10 13 141 54 68 10 61 81 76 15 14 13 18 24 4 66 60 77 6 4 5 5 5 4 5 3 0 0 1 2 0 0 0 0 1 1 1
4 6 3 3 28 8 20 26 22 31 67 23 55 29 48 18 26 32 1 9 66 88 55 1 5 12 12 10 7 5 6 5 4 1 0 1 2 3 0 0 0 1 3 3
3 5 0 4 0 16 14 36 77 25 22 5 11 14 70 2 86 16 3 21 19 35 25 17 9 9 8 5 4 6 7 5 6 5 7 5 5 3 1 0 1 1 1 1
3 0 0 0 0 2 14 18 21 29 20 17 24 9 2 10 10 9 14 12 11 14 5 3 5 12 5 5 5 4 5 4 3 4 4 6 5 4 2 2 2 3 2 2
0 0 0 0 0 0 0 3 6 7 6 7 11 13 12 5 6 4 11 10 7 2 2 3 11 8 7 7 7 6 6 5 5 5 6 4 3 4 4 6 5 3 2 3
0 0 0 0 1 5 7 6 7 8 8 5 10 9 7 2 3 7 3 4 5 4 3 4 11 6 6 7 7 5 7 5 6 7 7 5 4 3 2 2 3 1 3 2
0 0 3 4 5 7 8 8 8 4 4 8 12 0 0 0 0 3 3 1 2 4 7 14 15 9 8 8 9 7 7 6 7 8 7 6 6 5 7 7 6 5 4 3
0 1 4 5 5 7 7 6 6 3 4 3 0 0 0 1 0 0 3 0 2 7 13 14 11 9 9 11 10 10 11 11 11 11 10 9 6 6 8 6 4 4 3 2
0 6 9 9 5 5 8 10 6 4 5 3 0 0 3 0 0 2 7 7 14 16 16 15 10 11 9 8 7 8 9 9 10 9 8 9 10 8 5 4 7 5 5 4

GFSNW_con_sbcape_087.txt.gz
CAPE
40 51 51 54 53 71 44 61 41 44 280 144 115 30 96 28 133 58 12 0 22 46 19 3 0 4 12 1 0 30 68 110 23 10 9 0 1 0 0 0 3 37 50 28
63 81 75 73 88 97 86 49 50 97 273 106 105 68 19 145 80 61 34 33 3 1 2 5 1 8 12 0 0 0 0 55 37 27 1 0 0 0 4 9 28 13 144 59
70 72 90 105 72 79 153 101 99 69 162 121 152 123 91 79 128 117 42 60 48 17 22 30 30 24 11 5 0 0 0 0 2 13 17 36 41 23 18 22 69 20 31 43
79 77 80 107 133 102 228 80 67 45 78 102 98 108 98 142 82 98 69 59 75 59 47 52 52 39 19 20 12 0 0 1 0 0 0 0 22 32 40 16 11 30 18 42
52 64 69 70 96 113 159 48 38 24 41 45 114 95 55 35 58 152 76 81 71 56 56 51 41 40 46 43 24 14 27 25 24 25 1 0 0 6 6 17 25 24 40 29
35 39 50 60 62 88 56 76 58 91 37 68 107 103 132 34 100 72 73 73 79 50 57 53 63 26 19 23 25 23 34 23 25 24 3 44 31 5 22 41 56 48 39 22
49 59 65 61 57 60 31 16 59 73 49 74 120 79 84 93 88 112 109 119 79 71 57 34 24 17 17 23 16 10 21 20 22 47 7 0 0 50 0 14 3 72 32 48
105 113 93 69 63 67 30 39 63 76 89 53 51 99 101 90 118 106 166 141 69 79 57 23 19 15 18 10 19 28 11 35 53 51 35 0 3 37 0 0 0 72 204 47
87 82 75 73 72 57 52 26 42 125 106 58 42 68 64 120 101 146 104 117 52 72 43 168 34 67 38 34 25 5 33 32 74 68 29 31 66 16 6 10 52 0 56 267
71 66 71 79 79 86 99 27 29 64 127 47 77 112 101 162 151 128 192 70 14 39 109 107 55 94 20 19 24 56 44 61 44 51 42 17 28 79 50 20 40 2 2 256
65 56 62 67 73 81 182 35 26 13 20 58 89 105 83 97 141 174 184 82 19 10 105 78 62 52 42 16 12 67 30 38 57 66 40 30 20 84 76 19 35 35 82 11
42 55 60 57 63 75 98 78 60 20 13 9 42 137 158 178 42 147 53 19 15 62 103 83 73 69 43 23 35 53 45 14 52 45 41 59 3 96 0 0 1 23 28 69
35 38 55 56 69 59 66 83 120 16 4 28 9 1 15 78 122 93 47 30 29 51 89 64 108 60 47 50 23 2 30 54 29 34 32 16 13 9 0 0 0 0 0 127
50 49 44 48 56 57 55 49 59 32 40 54 48 3 2 7 97 117 124 30 42 50 110 128 81 80 24 35 38 44 53 12 32 32 54 40 25 8 1 0 0 0 0 15
44 56 59 58 69 39 49 31 29 62 46 52 31 5 15 22 61 81 83 52 52 135 88 67 49 52 45 54 65 53 53 17 81 180 14 12 24 10 0 0 0 0 0 0
35 46 62 67 65 63 34 3 31 72 183 112 67 38 16 31 65 69 80 93 70 68 56 84 72 73 69 57 34 2 2 3 6 3 2 1 1 2 0 0 0 0 0 0
24 32 42 40 45 18 4 59 2 9 226 61 114 69 58 50 78 117 93 103 57 63 14 49 85 85 61 61 29 5 1 0 1 2 0 0 3 4 0 0 0 1 0 0
27 31 36 26 3 21 33 54 0 75 45 44 65 56 72 46 74 61 132 52 37 39 46 120 98 51 73 13 3 2 0 0 0 0 0 4 1 0 0 0 0 0 0 1
34 33 12 9 12 20 71 4 5 64 77 58 30 40 99 69 53 51 117 69 8 11 16 94 87 15 13 7 7 5 5 3 2 0 0 0 1 1 0 0 0 0 0 2
21 23 3 2 22 11 9 22 8 50 107 104 78 75 198 39 27 46 14 59 79 150 12 15 109 10 10 5 3 5 5 3 4 2 0 1 2 4 4 2 1 1 1 1
39 14 0 9 0 51 42 58 71 95 88 68 71 104 84 3 80 154 114 67 116 85 22 91 10 10 8 3 3 5 5 7 3 3 5 4 3 3 5 3 2 1 0 1
11 4 0 0 12 39 117 62 24 33 47 17 37 19 37 13 13 113 12 55 49 70 11 17 9 9 3 3 3 5 5 6 5 4 7 9 7 8 4 2 1 2 4 2
0 0 0 1 0 6 27 22 23 54 5 15 20 20 20 4 8 63 103 105 10 12 18 8 20 11 5 5 5 4 5 5 5 5 6 6 6 5 4 6 7 8 6 6
0 0 0 4 5 9 9 9 9 11 7 6 6 15 5 9 11 24 4 6 10 9 5 9 21 14 9 5 6 6 7 7 11 11 10 7 6 5 4 5 6 5 5 4
0 0 4 6 10 14 12 13 16 7 9 10 10 11 4 6 4 7 8 8 5 6 13 22 24 8 8 9 10 11 10 10 13 11 9 9 8 9 10 12 11 9 6 5
2 3 14 9 23 19 16 12 11 8 8 4 8 10 5 5 6 3 5 3 6 17 26 30 11 10 12 13 11 11 13 15 17 15 11 10 7 7 12 9 7 5 4 2
4 12 14 18 15 17 16 15 12 5 6 10 3 2 5 0 5 4 7 16 21 26 21 18 16 15 12 9 13 16 13 14 12 11 13 17 18 13 8 7 11 8 6 5

GFSNW_con_sbcape_090.txt.gz
CAPE
52 41 51 64 78 93 7 40 48 37 178 71 82 52 2 5 2 23 0 46 29 2 0 0 0 16 48 0 0 0 18 100 82 34 17 5 2 0 0 0 9 55 26 0
69 63 63 83 78 89 67 47 17 94 222 62 35 14 13 14 20 38 21 64 2 1 0 0 0 0 10 0 0 0 0 13 47 46 20 21 45 43 12 5 5 5 16 5
69 70 78 81 88 83 123 89 66 12 127 55 47 45 19 23 10 57 37 116 119 8 1 0 1 24 28 0 0 0 0 0 0 0 3 1 9 77 35 40 33 57 15 0
59 69 83 73 99 112 171 95 67 24 57 69 23 38 22 73 65 30 80 154 144 76 5 10 24 34 18 14 15 4 4 0 0 0 0 0 0 0 9 35 28 19 0 5
60 60 92 107 92 114 95 67 30 8 10 7 28 10 17 25 14 82 121 78 123 103 66 85 66 57 50 38 25 30 38 37 13 8 0 0 0 0 0 0 0 9 16 5
47 42 83 89 92 68 60 35 22 53 3 17 31 49 77 32 23 4 2 65 135 85 111 72 58 5 24 26 9 6 16 16 20 1 0 1 0 0 0 0 0 12 37 38
52 42 51 59 67 44 42 40 15 65 26 49 18 31 36 61 90 52 30 5 119 119 85 81 31 9 8 0 0 1 2 13 34 9 1 0 0 0 27 17 32 20 19 10
77 75 55 39 54 53 14 26 35 73 34 3 14 22 63 103 91 83 54 75 115 61 107 39 16 0 2 0 0 1 9 18 34 23 10 0 0 0 11 20 28 18 25 22
72 80 79 60 63 59 43 17 14 58 70 5 0 27 27 74 157 118 115 200 92 182 7 22 7 28 9 30 2 0 14 18 47 37 9 9 40 40 30 30 59 0 0 6
56 76 80 86 86 82 73 44 24 35 47 18 18 45 49 99 121 150 164 101 101 84 76 39 12 13 15 35 45 8 22 36 33 45 24 8 14 0 1 76 15 5 33 21
23 48 57 64 79 90 129 48 24 10 4 7 6 31 100 144 138 205 122 89 11 2 33 24 26 40 54 37 8 36 5 38 36 49 30 20 85 65 41 12 18 6 6 0
13 40 55 63 65 82 109 67 36 55 7 11 5 33 84 89 98 108 27 124 9 48 14 63 82 86 205 33 12 57 63 27 73 9 21 71 0 43 1 0 0 0 0 0
29 26 56 69 77 73 81 61 140 7 8 15 5 0 31 156 207 140 29 19 96 121 172 177 150 109 86 79 31 43 43 44 80 6 25 89 32 13 0 0 0 0 0 0
43 34 38 61 52 60 54 32 40 28 29 28 0 76 23 11 38 135 183 177 54 66 133 74 107 216 137 32 15 15 21 4 51 16 24 32 9 0 0 0 0 0 0 0
45 58 62 57 67 63 37 38 34 67 57 51 0 80 76 27 3 0 113 141 50 106 38 62 42 26 41 69 70 25 6 6 34 31 2 3 5 0 0 0 0 0 0 0
33 58 63 67 57 64 23 3 16 95 141 96 59 59 49 50 35 54 118 79 92 55 34 44 38 70 70 47 28 0 0 0 0 0 0 0 0 0 0 0 0 0 0 1
28 49 59 62 48 37 2 23 0 0 158 69 64 32 39 28 68 160 120 87 57 14 13 25 31 88 76 46 46 11 0 0 0 1 0 0 0 0 0 0 0 0 0 0
31 46 59 58 45 2 7 128 0 19 103 68 102 65 97 70 97 91 87 43 35 31 20 30 49 69 26 10 2 0 0 0 0 0 0 2 1 1 1 0 0 0 0 0
44 56 28 3 13 8 49 0 5 144 97 51 104 59 101 86 74 87 72 21 2 12 10 29 69 16 5 7 1 1 2 1 0 0 0 0 1 1 2 1 2 2 2 1
5 1 5 0 38 12 14 14 4 15 30 90 95 68 112 59 22 15 19 12 9 39 10 65 11 7 2 0 0 1 2 2 2 0 0 1 3 3 3 1 2 2 3 1
50 9 1 11 12 50 27 17 95 54 27 85 65 91 50 11 39 5 114 17 32 28 36 71 10 5 4 2 2 2 1 2 3 2 1 2 3 4 2 0 0 1 1 2
5 1 1 1 21 42 65 32 49 53 56 39 64 75 89 10 1 109 34 47 69 33 4 49 6 11 1 1 1 1 1 3 3 4 5 3 3 3 1 1 2 3 2 2
0 0 0 1 0 21 32 7 24 25 10 9 10 19 18 13 3 2 86 35 60 9 27 3 12 2 2 1 3 1 2 2 3 4 4 3 3 1 3 5 7 5 5 5
0 0 0 3 3 6 7 10 8 6 5 3 3 28 38 1 7 1 6 8 15 12 9 6 11 9 4 7 6 5 4 5 6 7 4 4 5 5 3 1 0 0 1 0
0 0 5 7 14 12 17 15 11 6 4 5 13 18 17 12 4 10 3 3 3 2 7 12 12 8 6 7 9 9 8 9 8 6 6 5 1 2 3 4 7 5 2 2
0 0 15 5 29 14 5 7 6 10 6 4 6 11 7 6 16 5 3 6 3 12 19 20 8 5 9 9 8 8 10 10 8 10 7 5 3 5 5 4 4 2 2 2
4 9 7 21 16 16 14 15 8 3 4 5 1 2 4 1 2 2 6 11 17 13 12 8 8 12 9 10 14 10 11 8 9 7 7 10 10 8 5 5 7 4 3 2

GFSNW_con_sbcape_093.txt.gz
CAPE
63 51 44 43 53 60 13 6 5 0 15 17 23 3 0 0 0 2 0 12 3 54 0 0 0 0 4 0 0 0 0 18 36 51 21 0 0 0 0 0 0 0 0 0
59 59 66 26 41 49 5 28 0 0 38 0 0 0 0 0 0 0 5 31 13 7 0 1 0 0 12 0 0 0 0 0 2 23 45 9 20 1 3 0 0 0 0 0
59 56 60 68 76 42 28 17 5 0 14 5 13 9 5 0 0 0 0 1 8 5 13 0 1 0 4 3 0 0 0 0 0 0 0 0 0 0 0 0 12 0 0 0
59 66 66 93 95 106 27 20 1 6 14 0 4 0 1 3 6 31 0 10 19 22 28 28 0 24 55 27 0 0 0 0 0 0 0 0 0 0 0 0 5 1 0 1
68 68 75 122 117 111 28 8 5 1 0 3 39 15 0 4 4 19 7 11 2 11 0 18 18 3 7 0 0 0 16 0 0 0 0 0 0 0 0 0 0 0 0 0
46 51 48 94 111 82 9 5 0 11 0 1 21 3 16 11 7 1 5 8 0 0 4 8 5 9 3 0 0 0 0 0 0 0 0 0 0 0 0 0 0 0 0 0
42 65 61 44 98 96 6 10 4 16 0 0 0 0 0 0 4 13 35 4 0 1 90 2 10 3 0 0 0 0 0 0 0 0 0 0 0 0 0 49 2 0 4 0
71 70 72 54 41 90 3 15 17 11 0 0 0 0 0 1 6 16 22 28 12 0 77 22 0 0 0 0 0 0 0 0 0 5 2 0 0 40 23 4 10 0 0 0
54 55 70 71 50 54 19 4 8 33 16 0 0 2 0 10 0 0 13 29 0 64 1 0 0 0 10 0 0 0 0 0 0 1 5 0 25 0 14 1 3 3 0 0
41 35 48 73 83 50 13 7 14 12 4 0 0 0 0 2 2 2 13 57 53 22 1 0 0 0 0 0 38 0 0 5 0 0 4 0 31 1 2 41 5 0 0 2
50 27 32 60 79 81 19 8 1 1 1 0 13 3 2 0 2 10 2 1 3 1 0 2 0 0 4 9 3 0 0 5 1 4 24 1 0 2 30 4 0 0 0 0
43 37 27 54 69 79 38 28 1 3 6 7 0 0 0 0 31 23 15 19 3 0 0 0 0 15 2 0 0 6 0 0 0 0 0 2 0 0 0 0 0 0 0 0
37 45 33 35 77 77 43 4 10 6 4 0 0 0 0 0 12 16 0 3 6 17 0 9 2 2 10 8 1 15 33 2 10 3 23 26 9 0 0 0 0 0 0 0
35 43 46 27 56 71 52 15 16 9 4 1 0 0 0 0 2 80 3 9 21 5 1 5 0 1 13 13 6 3 12 5 34 22 7 0 0 0 0 0 0 0 0 0
33 44 48 52 51 74 43 16 9 2 1 11 0 1 0 6 0 7 22 8 15 5 0 1 1 14 4 4 2 2 5 7 9 5 5 4 0 0 0 0 0 0 0 0
23 30 55 60 49 54 39 1 25 11 1 33 11 1 7 25 0 7 0 13 14 19 8 13 14 14 17 4 0 0 0 0 0 0 0 0 0 0 0 0 0 0 0 0
14 26 52 57 46 21 0 0 0 5 15 31 12 3 3 43 35 5 3 16 24 16 3 2 7 1 6 2 1 3 5 2 0 0 0 0 0 0 0 0 0 0 0 0
25 31 43 44 42 3 1 0 0 1 27 27 4 12 7 12 31 34 7 20 14 3 3 3 14 11 8 1 1 0 1 0 0 0 0 0 0 0 0 0 0 0 0 0
50 48 47 2 10 7 8 0 1 11 6 9 1 14 32 10 12 19 16 1 0 1 4 0 5 4 0 4 2 2 0 0 0 0 0 0 0 0 0 0 0 1 1 0
2 0 0 0 2 15 12 1 2 11 3 14 1 2 16 20 3 3 2 2 1 6 0 6 0 1 2 0 0 0 0 0 0 0 0 1 1 1 1 0 0 0 0 0
6 5 1 9 6 1 4 0 2 2 1 1 0 15 2 1 0 1 0 0 0 0 0 1 3 4 9 2 1 0 0 0 0 0 1 0 1 2 1 0 0 0 0 1
2 0 1 5 6 5 2 0 4 1 4 1 13 10 2 0 0 1 0 0 1 5 1 4 0 5 0 0 0 0 0 0 1 1 1 0 1 0 0 0 1 2 2 0
0 0 0 0 0 1 5 0 2 1 0 1 0 0 0 0 0 0 0 0 0 0 0 0 0 0 0 0 0 0 0 0 0 0 1 0 0 0 0 0 0 0 0 0
0 0 0 0 0 0 0 1 2 1 0 0 0 0 0 0 1 0 0 0 0 1 0 0 0 0 0 0 1 0 1 0 1 0 0 0 0 0 0 0 0 0 0 0
0 0 0 0 3 1 0 1 1 1 0 0 0 1 6 0 0 0 0 0 0 0 0 0 0 0 0 0 1 0 0 0 0 0 0 0 0 0 0 0 0 0 0 0
0 0 0 0 0 0 0 0 0 1 0 0 0 1 0 0 0 0 0 0 0 0 1 0 0 0 0 0 0 0 0 0 0 0 0 0 0 0 0 0 0 0 0 0
0 0 0 0 2 1 0 1 0 2 0 0 0 0 0 0 0 1 3 0 0 0 0 0 0 0 0 0 0 0 0 0 0 0 0 0 0 0 0 0 0 0 0 0

GFSNW_con_sbcape_096.txt.gz
CAPE
57 64 60 59 33 30 15 0 0 0 1 9 42 8 3 0 0 0 0 6 0 0 44 4 4 1 2 0 0 0 0 3 17 20 25 10 0 0 0 7 0 0 0 0
64 63 61 39 35 33 6 2 0 0 23 1 0 0 4 0 0 0 0 14 24 17 21 38 12 9 0 0 1 0 0 0 1 0 10 0 0 0 0 23 0 0 0 0
65 70 59 46 50 26 1 9 0 0 0 13 23 2 0 0 0 0 0 0 9 43 6 15 3 0 0 0 1 56 0 0 0 0 0 0 0 0 0 0 3 0 0 0
38 48 59 59 62 73 29 1 0 0 2 1 8 3 11 0 0 0 3 1 1 11 19 2 11 0 1 0 0 31 0 0 0 0 0 0 0 0 0 0 0 0 0 18
69 76 65 73 74 85 32 0 0 0 0 3 21 5 7 0 0 2 0 11 35 6 3 6 1 0 1 28 26 9 4 1 0 0 0 0 0 0 0 0 0 0 0 0
66 64 65 41 88 36 16 1 0 1 0 1 0 9 10 0 1 0 1 1 1 27 4 15 14 0 0 9 7 0 1 0 0 0 0 0 0 0 0 0 23 12 4 16
55 69 66 64 47 44 0 0 0 0 0 0 0 0 0 0 0 14 11 1 3 7 5 2 0 5 0 0 0 0 0 0 0 0 0 0 0 9 41 11 2 0 0 0
65 70 71 68 80 48 0 0 0 0 0 0 0 0 0 0 0 0 0 1 1 13 10 13 1 0 0 0 0 0 0 0 0 0 0 0 0 3 33 13 6 12 0 6
58 48 59 76 77 55 6 3 0 8 4 0 0 0 0 0 0 0 0 28 4 13 0 0 0 0 31 25 0 0 0 0 0 0 0 0 12 21 3 20 67 0 0 0
63 61 52 56 80 85 29 1 1 14 20 0 0 0 0 0 2 0 0 0 18 0 0 0 0 0 0 0 18 0 0 0 0 0 0 0 3 7 0 13 5 0 0 0
57 48 51 36 73 83 9 9 1 0 1 1 0 0 0 0 1 7 0 0 0 0 5 0 0 0 0 15 2 1 0 0 1 0 4 0 0 0 0 0 3 0 0 0
50 51 51 40 71 79 10 8 1 12 9 20 0 0 0 0 1 24 38 8 2 0 0 0 0 13 0 23 6 6 2 0 0 0 0 4 0 0 0 0 0 0 0 0
44 62 47 43 64 79 41 2 4 11 14 8 4 0 0 0 0 0 11 2 0 21 0 1 0 0 0 11 1 0 37 10 2 2 16 3 0 0 0 0 0 0 0 0
45 46 43 46 50 67 48 8 11 7 6 16 0 0 0 0 0 0 0 0 13 7 12 0 0 0 0 5 53 5 6 1 9 14 7 1 0 0 0 0 0 0 0 0
44 53 53 63 62 37 40 2 8 4 18 2 0 0 0 0 0 0 0 2 1 0 2 0 0 0 0 0 5 7 7 7 0 1 11 15 1 0 0 0 0 0 0 0
39 50 51 62 58 30 26 2 6 8 0 60 0 0 0 0 0 0 0 1 23 2 0 0 0 0 0 1 3 6 2 3 14 7 3 4 0 0 0 0 0 0 0 0
35 42 48 58 43 14 3 0 0 1 8 28 2 0 0 0 0 0 0 1 0 18 0 0 2 1 4 1 0 2 7 7 11 0 0 0 0 0 0 0 0 0 0 0
20 35 41 50 26 12 12 0 0 7 24 42 9 0 0 3 4 43 24 38 18 12 1 10 10 14 5 0 4 3 2 4 1 1 0 0 0 0 0 0 0 0 0 0
38 40 50 4 7 3 3 2 8 12 7 0 0 0 11 0 0 33 22 6 0 0 1 0 2 1 0 1 1 2 3 3 0 0 0 0 0 0 0 0 0 0 0 0
5 0 1 0 7 20 14 0 1 4 8 12 3 0 14 4 0 0 0 0 1 1 0 2 3 3 2 2 0 0 0 0 0 0 0 0 0 1 0 0 0 0 0 0
3 2 2 6 3 1 2 0 1 7 0 0 0 0 1 1 0 0 0 0 0 0 0 0 2 2 3 0 0 0 0 0 0 0 0 0 1 1 0 0 0 0 1 1
0 0 1 4 5 3 1 1 0 0 0 0 4 3 0 0 1 0 0 1 0 0 0 0 0 3 4 0 0 0 0 0 0 0 0 0 2 0 0 0 1 2 1 0
0 0 1 0 0 0 0 0 5 0 0 0 0 1 0 0 0 0 0 1 0 0 0 0 0 2 0 0 0 0 0 0 0 0 0 0 0 0 0 0 0 0 0 0
0 0 0 0 0 0 0 0 0 0 0 0 0 0 0 0 0 0 0 0 0 0 0 0 0 0 2 0 0 0 0 0 0 0 0 0 0 0 0 0 0 0 0 0
0 0 0 0 0 0 0 0 0 0 0 0 0 0 0 0 0 0 0 0 0 0 0 0 0 0 0 0 1 0 0 0 0 0 0 0 0 0 0 0 0 0 0 0
0 0 0 0 0 0 0 0 0 0 0 0 0 0 0 0 0 0 0 0 0 0 0 0 0 0 0 0 0 0 0 0 0 0 0 0 0 0 0 0 0 0 0 0
0 0 0 0 0 0 0 0 0 1 0 0 0 0 0 0 0 0 0 0 0 0 0 0 0 0 0 0 0 0 0 0 0 0 0 0 0 0 0 0 0 0 0 0

GFSNW_con_sbcape_099.txt.gz
CAPE
34 40 63 54 46 40 1 0 0 0 0 0 0 0 0 0 0 0 0 0 0 46 2 0 5 59 25 0 5 1 0 0 0 0 0 0 0 0 0 3 0 0 0 0
46 49 62 58 43 26 0 4 0 0 0 16 0 0 0 0 0 0 0 0 3 28 1 0 22 0 0 0 0 6 0 0 0 0 31 0 0 0 0 0 0 0 4 0
57 51 69 71 67 55 0 0 0 0 0 2 9 6 0 0 0 1 0 0 0 0 17 0 0 1 0 0 1 2 5 1 2 0 0 0 0 0 0 0 0 0 0 0
41 44 49 58 71 54 0 4 0 0 1 4 8 6 0 0 0 0 4 0 0 0 1 10 0 10 19 4 0 17 17 0 16 4 0 0 0 0 0 0 0 0 0 2
50 60 73 57 64 48 5 0 0 0 0 0 7 2 5 0 5 0 0 0 0 6 10 12 0 9 12 0 31 9 46 3 27 13 0 0 0 0 0 0 0 0 0 0
49 54 77 89 71 14 14 0 0 0 0 0 0 0 2 2 0 0 0 0 4 1 4 0 0 0 3 8 0 0 9 34 2 0 0 0 0 0 0 7 0 7 37 11
46 55 74 79 82 18 0 4 0 0 0 0 0 0 0 0 0 0 0 0 1 11 57 0 0 0 0 0 0 0 0 3 0 0 0 0 0 112 12 36 20 4 7 3
48 66 67 72 68 61 0 0 0 0 0 0 0 0 0 0 0 0 0 0 0 8 39 25 0 0 0 0 0 0 0 0 21 3 0 0 18 7 11 21 12 2 1 1
58 61 53 63 74 76 1 0 0 2 8 0 0 0 0 0 0 0 0 0 0 3 0 0 12 0 0 4 1 0 0 0 0 0 0 0 0 17 0 4 34 0 0 1
63 61 49 55 58 65 36 4 1 8 8 0 0 0 0 0 0 0 0 0 0 0 0 2 0 0 0 0 1 0 0 1 2 4 4 0 0 0 0 6 0 0 0 0
64 71 56 31 53 59 26 1 0 0 2 0 0 0 0 0 1 0 0 0 0 0 2 0 0 0 0 0 7 11 3 1 4 9 10 0 0 0 0 0 0 0 0 0
62 73 53 49 55 59 26 8 0 3 11 10 0 0 0 0 3 6 4 0 3 17 1 0 0 0 0 1 2 3 12 0 0 0 0 1 0 0 0 0 0 0 0 0
61 73 58 49 70 41 34 5 2 7 4 0 1 0 0 0 0 0 0 0 1 31 3 1 2 0 0 9 4 12 2 14 15 0 22 3 1 0 0 0 0 0 0 0
62 61 33 42 64 64 30 8 3 5 13 0 0 0 0 0 0 0 0 0 4 2 5 9 13 0 0 12 43 22 8 12 5 19 6 11 1 0 0 0 0 0 0 0
57 56 43 54 73 59 19 6 2 1 20 0 0 0 0 0 0 0 0 0 0 2 2 0 0 0 0 0 4 4 12 9 7 0 9 11 5 0 0 0 0 0 0 0
58 73 60 49 46 34 9 1 12 4 8 51 0 0 0 0 0 0 0 0 6 26 6 0 0 0 1 0 1 9 6 8 10 8 4 10 9 0 0 0 0 0 0 0
55 52 51 57 59 0 0 0 0 10 8 36 0 0 0 0 0 0 3 2 12 37 6 0 0 0 5 0 1 3 11 3 3 5 8 3 0 0 0 0 0 0 0 0
47 53 49 46 31 1 2 0 1 14 32 32 1 0 0 1 0 3 0 2 14 14 12 9 0 16 2 0 2 0 0 2 2 2 0 0 0 0 0 0 0 0 0 0
24 31 53 12 1 3 0 1 4 15 12 0 3 0 1 0 15 21 15 5 2 2 3 1 6 0 0 1 0 0 1 1 1 0 0 0 1 0 0 0 0 0 1 0
5 10 0 0 2 21 11 0 2 3 8 21 2 0 0 0 1 0 0 0 0 5 2 1 1 0 1 1 2 2 1 0 0 0 0 0 0 0 0 0 0 0 0 1
6 1 0 11 5 0 1 0 1 5 6 0 0 0 2 1 0 0 0 0 0 1 1 1 1 1 1 1 1 0 0 0 0 0 0 0 0 1 0 0 0 0 0 1
4 0 6 0 3 1 2 0 1 0 0 0 0 8 1 0 1 0 0 0 0 0 0 0 0 1 0 0 0 0 0 0 0 0 0 0 1 1 0 0 0 0 0 0
0 0 0 0 0 0 0 0 0 2 0 0 2 0 0 0 0 0 0 0 0 0 0 0 0 2 0 0 0 0 0 0 0 0 0 0 0 0 0 0 0 0 0 0
0 0 0 0 0 0 0 0 0 0 0 0 0 0 0 0 0 0 0 0 0 0 0 0 0 0 1 0 0 0 0 0 0 0 0 0 0 0 0 0 0 0 0 0
0 0 0 0 0 0 0 0 0 0 0 0 0 0 0 0 0 0 0 0 0 0 0 0 0 0 0 0 0 0 0 0 0 0 0 0 0 0 0 0 0 0 0 0
0 0 0 0 0 0 0 0 0 0 0 0 0 0 0 0 0 0 0 0 0 0 0 0 0 0 0 0 0 0 0 0 0 0 0 0 0 0 0 0 0 0 0 0
0 0 0 0 0 0 0 0 0 0 0 0 0 0 0 0 0 0 0 0 0 0 0 0 0 0 0 0 0 0 0 0 0 0 0 0 0 0 0 0 0 0 0 0

GFSNW_con_sbcape_102.txt.gz
CAPE
11 12 23 35 42 21 0 0 0 0 0 0 0 0 0 0 0 0 0 0 0 13 0 0 3 2 0 0 0 4 0 0 0 0 0 0 0 0 0 0 0 0 0 0
14 26 32 43 43 13 1 0 0 0 0 0 0 0 0 8 0 0 0 0 2 17 0 0 0 0 0 0 0 1 0 0 1 0 0 0 0 0 0 0 0 0 0 0
15 24 28 51 43 23 0 0 0 0 0 9 11 5 3 0 0 0 0 0 0 0 7 0 0 0 0 0 1 23 3 0 0 3 0 0 0 0 0 0 0 0 0 0
15 31 40 50 44 21 0 3 0 0 0 20 9 11 0 0 0 0 0 0 0 0 0 0 0 0 0 0 0 7 19 0 0 0 0 0 0 0 0 0 0 0 0 0
22 28 39 56 48 23 0 0 0 0 0 0 0 1 0 6 0 0 5 0 0 0 0 0 0 0 0 3 1 5 4 19 2 0 0 0 0 0 0 0 0 0 0 0
25 29 40 57 47 12 5 0 0 0 0 0 0 0 0 4 0 0 0 0 0 0 5 0 0 0 0 0 1 4 1 24 6 0 0 0 1 0 0 0 0 0 0 0
27 35 30 47 48 1 0 0 0 3 0 0 0 0 0 0 0 0 0 0 0 0 2 8 1 0 0 0 0 0 1 1 0 0 0 0 12 5 0 1 4 4 0 0
31 28 27 33 51 47 0 0 0 0 0 0 0 0 0 0 0 0 0 0 0 0 10 1 12 0 0 0 0 0 0 0 0 0 0 0 8 8 8 11 7 0 0 7
27 35 25 27 60 65 4 1 1 7 0 0 0 0 0 0 0 0 0 0 0 1 0 0 30 13 1 3 5 0 0 0 0 0 0 0 0 3 0 5 8 0 0 3
29 21 21 40 51 66 12 1 1 8 2 0 0 0 0 0 0 0 0 0 0 0 0 20 13 1 0 0 13 0 0 0 1 0 0 0 0 0 0 8 0 0 0 2
32 13 22 34 40 51 32 7 0 0 2 0 0 0 0 0 0 0 0 0 0 0 3 0 2 0 0 3 4 0 0 0 1 4 3 0 0 0 0 0 0 0 1 0
29 18 27 44 31 37 10 2 1 1 7 8 0 0 0 0 0 0 0 0 3 0 19 5 1 0 0 0 1 0 10 5 0 0 0 0 0 0 0 0 0 0 0 0
30 26 43 46 36 37 6 0 1 4 4 5 1 0 0 0 0 0 6 0 1 7 5 33 29 3 0 2 0 1 4 5 5 4 13 6 2 0 0 0 0 0 0 0
39 48 54 60 38 38 13 1 1 2 10 1 0 0 0 0 0 0 0 0 0 11 26 11 37 0 0 0 6 7 7 6 4 20 16 8 4 6 3 0 0 0 0 0
47 46 58 45 29 50 3 0 0 0 14 1 0 0 0 0 0 0 0 0 0 0 20 9 11 0 0 0 1 1 18 7 7 2 6 9 13 10 0 0 0 0 0 0
26 40 45 46 41 54 4 1 10 2 11 21 0 0 0 0 0 0 0 0 0 25 16 0 1 0 0 0 0 6 12 8 12 6 7 12 15 8 1 0 0 0 0 0
33 41 44 44 35 3 0 0 0 7 10 20 1 0 0 0 0 0 0 10 1 6 24 10 1 0 1 0 0 4 3 3 3 3 12 2 1 3 2 0 0 0 0 0
42 54 44 40 39 6 2 0 0 10 25 38 0 0 0 12 0 0 0 2 2 21 19 15 1 9 0 0 1 0 0 0 0 0 0 6 0 0 0 0 0 0 0 0
33 44 43 23 1 3 5 10 3 6 5 0 4 1 0 0 0 0 0 0 7 0 2 1 8 0 0 0 0 0 0 0 0 0 0 0 0 0 0 0 0 0 1 0
49 14 0 0 2 12 7 2 2 5 6 27 4 0 0 0 1 6 11 0 0 5 0 0 0 0 2 1 0 0 0 0 0 0 0 0 0 0 0 0 0 0 1 0
0 0 0 2 5 0 1 0 1 4 8 0 0 0 0 0 1 0 0 0 0 0 1 0 0 0 1 1 1 0 0 0 0 0 0 1 0 1 1 0 0 0 0 0
0 0 3 0 1 1 1 0 1 1 0 0 0 1 5 0 0 1 0 0 0 0 1 0 0 1 2 0 0 0 0 0 0 0 0 0 1 0 0 0 0 0 0 0
0 0 0 2 0 0 0 1 0 0 0 1 1 3 0 0 0 0 0 0 0 0 0 0 0 1 1 0 0 0 0 0 0 0 0 0 0 0 0 0 0 0 0 0
0 0 0 0 0 0 0 0 0 0 0 0 0 0 0 0 0 0 0 0 0 0 0 0 0 0 0 0 0 0 0 0 0 0 0 0 0 0 0 0 0 0 0 0
0 0 0 0 0 0 0 0 0 0 0 0 0 0 0 0 0 0 0 0 0 0 0 0 0 0 0 0 0 0 0 0 0 0 0 0 0 0 0 0 0 0 0 0
0 0 0 0 0 0 0 0 0 0 0 0 0 0 0 0 0 0 0 0 0 0 0 0 0 0 0 0 0 0 0 0 0 0 0 0 0 0 0 0 0 0 0 0
0 0 0 0 0 0 0 0 0 0 0 0 0 0 0 0 0 0 0 0 0 0 0 0 0 0 0 0 0 0 0 0 0 0 0 0 0 0 0 0 0 0 0 0

GFSNW_con_sbcape_105.txt.gz
CAPE
4 12 19 27 12 0 0 0 0 0 0 0 0 0 0 0 0 0 0 0 7 4 0 0 0 0 0 0 0 4 0 0 5 0 0 0 0 0 0 0 0 0 0 0
14 16 33 27 22 0 0 0 0 0 0 0 0 0 0 1 0 0 0 0 0 0 0 0 0 0 0 0 2 9 0 1 42 19 25 0 0 0 0 0 0 0 0 0
10 14 24 29 34 2 0 0 0 0 5 5 6 3 0 0 0 0 5 0 0 0 0 0 0 0 1 0 6 17 5 0 0 1 0 0 0 0 0 0 0 0 0 0
2 12 34 46 38 10 0 1 0 0 0 18 0 0 0 3 5 0 0 0 0 5 3 0 2 11 0 0 3 9 11 4 0 0 0 0 0 0 0 0 0 0 0 0
4 18 25 43 32 1 0 0 0 0 0 0 0 0 0 7 0 0 1 0 0 0 1 4 10 0 0 0 2 20 5 7 0 11 0 0 0 0 0 0 0 0 0 0
10 16 24 52 40 0 3 0 0 0 0 0 0 0 0 1 0 0 0 0 0 0 0 0 3 4 0 0 0 9 15 14 6 3 7 0 0 0 0 0 0 0 0 2
7 16 35 42 48 0 0 0 0 3 0 0 0 0 0 0 0 0 0 0 0 0 0 0 0 4 0 0 0 0 4 2 0 1 0 0 33 0 0 0 1 3 2 10
9 24 28 38 46 56 0 0 0 0 0 0 0 0 0 0 0 0 0 0 0 0 2 3 10 12 8 3 0 0 1 3 6 0 0 0 15 13 8 43 0 2 5 14
2 32 28 41 35 64 0 0 2 14 2 0 0 0 0 0 0 0 0 0 0 0 0 10 61 51 15 28 36 0 2 6 12 0 0 0 1 6 0 3 1 0 0 8
7 29 37 31 30 60 5 1 0 7 10 0 0 0 0 0 0 0 0 0 0 0 1 38 58 42 1 13 33 20 1 10 13 5 0 0 0 0 0 14 2 6 1 6
4 22 35 20 23 49 20 1 0 0 4 0 0 0 0 0 0 2 0 0 0 2 11 5 50 10 7 27 41 2 21 5 7 10 5 0 0 0 0 5 3 1 2 3
6 26 34 20 25 45 58 2 1 5 8 7 0 0 0 0 0 0 0 0 17 4 1 10 41 7 0 0 35 0 29 22 56 4 6 4 2 3 0 0 0 1 2 2
16 29 36 22 30 48 51 1 3 11 4 3 8 0 0 0 0 0 12 1 18 25 9 47 18 5 6 27 9 1 27 7 20 18 13 10 6 2 0 0 0 0 0 1
16 30 30 36 52 44 33 1 1 5 7 3 0 0 0 0 0 0 0 0 7 9 26 21 4 4 4 13 13 12 8 16 4 20 18 17 15 18 13 4 0 0 0 0
17 29 32 45 48 47 25 0 1 2 3 10 0 0 0 0 0 0 0 0 1 6 19 34 13 14 12 0 13 1 7 3 3 3 7 7 17 9 6 2 0 0 0 0
12 8 26 45 57 50 0 0 3 0 15 36 1 0 0 0 0 0 1 2 4 17 20 2 6 2 7 3 3 5 12 6 5 3 8 7 6 6 6 3 0 0 0 0
17 9 18 40 46 0 1 1 0 1 14 16 0 0 0 0 0 0 7 6 15 9 11 29 7 0 4 1 3 6 4 4 3 5 15 2 3 4 5 0 0 0 0 0
26 20 22 40 41 4 1 0 3 17 19 4 0 0 0 2 2 5 17 3 12 23 38 7 2 0 1 1 2 1 1 2 0 2 6 3 1 0 0 0 0 0 0 0
24 32 41 18 0 1 3 4 21 20 0 0 2 0 0 4 14 1 5 7 3 0 32 62 5 1 1 3 1 1 1 0 0 1 0 1 0 0 0 0 0 0 2 2
22 29 8 0 2 8 12 1 1 4 11 15 7 0 0 0 2 2 5 1 5 47 5 0 2 1 3 2 1 0 0 0 0 1 0 0 1 1 0 1 1 1 1 1
28 0 0 0 1 0 2 1 4 3 1 3 1 0 0 1 2 11 2 1 2 2 9 4 0 0 3 3 1 0 0 0 0 0 2 2 1 2 1 1 1 0 0 0
0 1 5 2 2 2 1 1 3 1 0 0 0 1 15 4 1 5 2 5 3 8 2 0 0 2 3 1 1 0 0 0 0 0 0 1 2 1 0 0 0 0 0 0
2 1 1 4 0 0 0 0 3 0 0 0 4 6 1 1 2 1 2 3 3 1 0 0 1 3 2 1 0 0 0 0 0 0 0 0 0 0 0 0 0 0 0 0
0 0 0 0 0 0 0 0 0 0 0 1 0 1 0 0 2 1 1 1 3 0 0 0 3 2 1 0 0 0 0 0 0 0 0 0 0 0 0 0 0 0 0 0
0 0 0 0 0 0 0 0 0 0 0 0 1 0 0 0 0 0 0 0 0 0 0 0 2 1 0 0 0 0 0 0 0 0 0 0 0 0 0 0 0 0 0 0
0 0 0 0 0 0 0 0 0 1 0 1 0 0 0 0 0 0 0 0 0 0 0 1 1 0 0 0 0 0 0 0 0 0 0 0 0 0 0 0 0 0 0 0
0 0 0 0 0 0 0 0 0 1 0 0 0 0 0 0 0 0 0 0 0 0 0 0 0 0 0 0 0 0 0 0 0 0 0 0 0 0 0 0 1 0 0 0

GFSNW_con_sbcape_108.txt.gz
CAPE
0 0 1 14 0 0 0 0 2 0 3 22 16 13 0 0 0 3 37 17 12 19 8 0 4 8 19 5 5 67 31 101 61 37 49 0 0 0 0 0 0 0 0 2
1 0 10 14 6 0 4 3 0 0 17 8 3 7 9 2 2 3 16 29 30 32 18 14 2 4 31 8 37 54 4 100 44 51 91 69 71 11 1 1 5 21 52 76
0 0 5 24 18 0 2 8 6 1 26 10 6 6 9 8 4 5 9 15 14 13 21 25 11 13 0 0 35 7 48 52 47 42 43 61 57 84 54 48 55 24 25 39
0 0 8 26 17 1 0 8 2 0 7 11 2 1 1 8 3 1 9 11 7 7 6 38 29 20 5 4 13 25 29 72 51 32 21 31 53 40 32 24 24 21 31 3
0 0 11 20 26 2 2 79 7 0 1 0 1 0 1 1 2 0 0 28 7 2 12 32 33 37 43 21 16 10 31 38 4 5 4 19 9 0 2 0 0 0 0 8
3 2 10 26 40 3 10 1 0 4 1 0 0 1 2 4 0 0 0 0 0 0 14 1 0 48 89 67 36 13 24 45 20 19 7 15 7 0 0 9 12 4 22 36
9 2 9 32 37 3 3 0 11 13 18 0 3 0 0 0 0 0 0 0 2 0 0 9 102 153 135 99 74 35 35 29 33 29 11 10 100 125 38 16 32 7 4 19
16 6 5 29 34 22 0 0 21 19 27 8 1 0 0 0 0 0 0 1 1 0 49 141 77 109 146 111 110 65 27 27 45 33 34 5 0 45 58 61 20 12 4 14
21 0 10 24 42 43 0 0 3 14 18 15 0 0 0 6 7 8 1 1 0 24 66 116 69 85 26 52 126 84 29 25 60 34 19 11 125 10 30 147 21 14 8 4
21 2 9 22 40 40 33 3 2 7 25 1 9 16 16 0 5 17 12 3 1 34 8 103 62 94 92 88 71 71 124 173 126 45 32 1 4 0 6 140 19 6 5 6
25 5 4 24 30 25 51 6 2 11 13 3 2 0 4 4 8 24 20 15 32 44 43 78 107 145 135 141 95 169 116 106 82 47 21 3 1 49 68 12 6 4 4 3
29 10 0 12 30 20 56 23 2 7 8 25 7 5 2 2 6 15 13 19 16 28 35 38 25 148 209 141 112 158 162 91 69 112 125 8 6 6 0 2 8 7 4 4
41 20 0 14 33 25 48 12 4 6 5 25 10 1 0 0 2 0 18 12 17 42 43 44 35 20 25 178 153 94 91 8 22 29 20 20 17 18 5 2 3 1 2 3
43 20 10 21 36 38 49 12 5 8 16 21 5 0 0 0 0 2 3 16 34 47 44 42 24 19 18 110 125 66 14 12 20 29 26 14 9 17 20 6 3 0 0 0
36 20 16 36 36 41 93 18 3 6 25 22 8 0 0 0 0 0 5 16 20 30 33 37 23 20 24 26 58 13 9 6 11 19 17 8 11 10 7 3 1 0 0 0
31 14 15 24 36 47 5 1 10 5 14 31 15 0 0 0 0 2 11 21 5 16 34 35 27 11 34 46 13 7 14 11 10 17 12 9 11 11 11 5 4 0 0 0
22 17 24 31 49 82 6 48 18 7 13 41 5 9 0 5 9 4 1 3 19 10 17 39 29 33 64 12 8 7 6 7 9 20 22 7 10 8 8 6 3 0 0 0
20 18 30 49 43 42 10 8 7 11 18 20 6 5 3 11 27 34 15 7 25 40 36 38 60 6 32 12 4 3 4 5 5 12 9 8 8 7 4 1 1 0 0 0
19 20 21 42 20 5 4 1 13 41 22 3 4 12 25 45 18 42 55 18 19 55 42 53 45 31 21 5 2 2 1 0 0 2 6 7 5 2 0 0 1 1 1 1
27 38 8 3 4 15 0 1 4 9 11 52 13 5 15 23 15 67 116 46 24 24 15 43 60 2 4 3 4 1 0 0 0 3 1 1 2 1 1 1 0 1 1 1
20 1 3 13 8 16 5 17 33 43 17 8 13 12 35 16 17 65 36 17 46 15 53 48 32 5 6 6 5 2 0 0 0 0 0 1 1 2 2 1 1 1 1 2
4 5 10 8 12 10 20 36 22 8 3 10 3 8 9 36 10 39 38 173 38 23 17 46 12 6 6 6 3 1 1 0 0 1 2 2 2 2 1 1 2 3 2 2
17 13 2 10 6 22 21 9 13 7 10 10 19 29 37 30 15 6 38 112 117 6 40 10 6 8 7 4 0 0 0 0 0 2 2 2 2 1 2 2 3 3 2 2
4 2 1 10 5 8 14 12 5 5 11 19 33 30 55 24 16 8 7 6 18 31 6 4 8 10 7 4 1 0 1 1 2 2 2 1 1 1 1 1 1 0 1 1
4 0 1 2 4 4 6 4 8 4 3 11 8 7 6 3 4 3 5 6 2 1 5 8 14 8 5 3 2 2 1 0 2 2 1 1 0 1 1 1 2 1 1 1
0 0 4 7 8 7 5 9 5 2 2 2 5 1 2 1 0 1 1 1 3 7 9 12 9 3 2 2 2 2 2 3 4 3 3 2 1 1 3 2 1 1 1 1
0 7 8 9 7 6 3 3 5 3 5 12 0 1 2 0 0 0 0 5 8 15 16 14 8 4 3 2 2 1 2 3 3 3 2 3 3 2 3 3 5 4 2 2

GFSNW_con_sbcape_111.txt.gz
CAPE
0 0 0 0 0 0 0 4 9 0 0 21 15 19 1 0 8 5 19 34 29 37 37 14 43 36 2 2 42 72 131 181 29 11 17 5 0 0 17 16 8 8 1 1
0 0 0 0 0 0 24 2 0 0 1 19 1 5 5 3 16 13 10 24 22 25 29 31 20 31 2 0 27 41 30 111 45 38 88 5 0 0 5 15 11 4 22 6
0 0 0 6 2 0 4 11 17 4 8 1 5 3 7 19 10 17 14 15 28 38 20 32 26 40 25 9 32 9 29 46 48 137 46 30 54 12 1 19 51 42 22 78
0 0 0 10 3 0 2 28 15 0 14 13 3 3 6 14 11 0 12 31 28 23 27 25 41 49 35 29 37 35 68 97 39 25 8 51 0 37 75 60 68 30 54 57
0 0 0 0 6 0 17 0 28 12 9 0 0 2 8 5 14 1 0 8 7 7 18 32 30 30 39 36 35 25 11 73 44 45 37 48 69 35 46 63 43 47 21 20
0 0 0 2 14 2 6 22 9 21 6 15 9 4 2 5 3 0 0 1 1 2 11 3 2 3 10 26 37 31 20 25 74 34 22 25 22 39 36 54 56 69 85 160
4 0 0 0 13 4 45 15 16 13 21 13 12 11 6 2 2 0 0 1 5 1 0 0 31 109 136 113 65 19 47 25 19 80 14 22 115 129 91 54 147 127 68 70
13 1 0 0 8 16 64 39 23 25 31 17 16 18 12 8 11 3 7 11 17 7 11 44 65 116 118 112 99 70 43 56 80 84 83 57 22 191 137 154 85 36 25 20
15 7 0 1 11 28 4 0 41 50 48 30 15 23 24 31 20 34 33 25 13 11 38 64 97 104 83 102 100 78 84 100 75 147 46 52 29 0 0 4 174 8 6 1
23 15 1 2 7 17 72 12 1 16 39 19 35 44 38 35 26 33 48 34 16 42 17 48 125 131 124 98 55 80 129 161 157 117 72 101 14 19 0 103 27 11 7 6
33 21 5 2 12 17 55 37 2 12 26 16 19 31 32 36 30 50 39 26 40 41 41 59 81 128 171 135 105 102 122 111 179 176 132 90 2 8 22 4 10 8 5 4
35 28 8 1 4 15 31 37 4 19 14 9 9 12 23 41 27 45 21 22 15 27 57 78 30 45 154 100 162 160 156 76 26 262 51 14 6 7 1 1 4 6 5 5
25 31 14 0 1 25 31 73 9 2 8 10 6 1 5 5 5 42 40 25 18 38 86 77 47 35 123 119 155 134 161 15 44 25 7 10 22 12 5 2 6 3 5 6
28 42 24 11 6 29 31 75 8 3 14 48 39 11 7 0 5 36 40 47 48 49 108 41 32 20 36 47 64 63 48 24 15 22 20 12 7 23 30 7 2 1 1 1
18 40 25 16 9 31 70 144 18 7 52 111 41 36 18 12 1 27 53 25 37 18 57 48 25 25 48 65 120 40 7 9 14 19 19 32 16 27 20 10 3 1 1 1
37 32 21 18 24 34 67 13 21 7 16 16 49 33 2 4 4 26 48 33 33 12 43 39 23 18 38 51 129 2 6 6 20 24 23 14 14 13 11 9 9 3 0 0
20 25 19 2 14 85 49 32 17 13 17 25 48 36 12 19 41 20 16 15 20 6 21 28 26 53 44 89 38 8 4 6 21 25 27 8 11 9 8 7 7 6 1 0
18 23 25 10 18 40 41 53 21 18 8 43 26 36 28 16 18 27 11 16 35 29 37 40 20 71 57 51 5 2 5 5 8 15 9 9 10 8 8 8 2 0 0 1
19 26 35 51 49 44 24 14 7 32 27 48 10 26 69 18 61 52 46 47 62 59 56 71 99 80 36 6 2 1 2 2 2 8 7 7 7 9 6 1 0 1 1 1
24 51 43 7 7 3 4 2 3 7 13 37 21 17 97 78 69 63 72 43 133 29 67 66 91 7 6 3 1 2 1 0 1 12 6 3 6 5 0 0 0 0 2 2
50 11 28 26 27 19 8 27 53 41 47 27 17 32 112 75 83 183 105 145 47 46 76 54 53 8 8 4 5 3 2 0 0 0 0 0 1 2 1 1 1 1 2 4
45 42 11 17 14 20 75 39 34 17 12 25 10 5 20 80 51 108 78 18 136 18 121 36 27 10 6 5 3 3 2 1 1 2 3 3 2 2 2 2 3 4 4 3
4 9 2 15 25 198 30 40 13 16 16 14 19 33 33 76 89 77 66 90 95 105 81 25 10 8 6 4 3 1 0 1 2 3 4 3 5 3 5 5 5 5 5 5
47 17 7 137 15 45 61 66 162 114 168 40 50 112 35 49 27 79 47 131 34 131 36 9 11 14 9 4 1 1 3 4 5 6 5 3 3 4 4 4 5 4 4 3
19 14 116 6 7 5 9 6 8 4 24 167 108 77 42 21 96 10 14 14 70 4 9 13 19 13 8 6 5 4 3 4 5 7 6 5 4 4 5 5 7 6 4 4
5 4 4 5 9 10 14 24 7 2 4 165 145 24 19 15 13 9 11 7 27 10 13 12 10 8 7 7 6 6 6 7 7 7 6 5 4 5 7 5 5 4 4 3
6 7 9 9 28 21 8 14 7 3 16 43 44 15 11 1 6 3 5 4 9 13 22 20 8 9 9 7 6 5 6 7 7 8 7 6 5 3 5 7 8 5 3 1

GFSNW_con_sbcape_114.txt.gz
CAPE
0 0 0 0 0 0 0 0 10 0 0 35 26 20 0 0 0 3 6 16 16 25 20 42 15 23 2 2 24 19 32 81 26 44 5 1 1 3 19 36 0 0 4 0
0 0 0 0 0 0 0 6 0 0 0 48 15 1 1 0 1 10 5 15 11 24 17 5 30 23 4 0 21 18 3 57 7 36 64 2 0 0 0 13 13 0 33 0
0 0 0 0 0 0 0 5 40 5 5 0 0 1 3 1 6 2 6 14 34 18 10 10 20 11 5 7 15 70 65 63 37 40 27 24 59 0 0 0 26 0 11 23
1 0 0 0 0 0 0 11 17 0 25 11 0 1 0 3 7 9 5 20 23 7 14 19 20 9 0 0 11 28 24 51 22 26 16 0 62 54 58 0 0 19 19 11
0 0 0 0 0 0 4 0 37 5 9 0 0 1 0 1 4 4 3 12 6 11 18 15 14 17 2 0 0 1 19 24 6 27 0 25 0 2 5 4 4 8 0 10
1 0 0 0 0 0 13 10 8 11 5 8 6 5 0 0 0 0 1 1 0 1 6 2 1 2 0 4 1 7 22 28 11 28 1 4 4 59 25 7 16 34 44 59
0 0 0 0 0 1 27 16 3 9 13 15 5 8 4 5 5 0 0 0 4 0 0 0 0 20 52 62 52 23 26 25 22 21 41 2 151 19 98 107 103 115 62 12
1 0 0 0 0 1 23 75 16 22 26 11 6 11 6 14 13 22 13 10 5 1 0 2 0 125 61 94 58 51 29 27 26 25 32 16 2 0 3 25 44 5 6 3
22 10 0 0 0 0 18 36 51 32 25 18 22 12 12 22 29 16 25 30 7 4 18 20 5 17 76 38 48 4 51 60 39 65 18 20 9 6 0 7 19 3 13 1
22 23 1 0 0 2 19 8 3 36 43 8 23 26 29 20 24 21 30 5 9 22 30 18 34 41 90 41 18 10 84 72 92 72 21 40 7 3 0 50 19 11 9 3
27 30 6 5 4 4 32 63 53 25 24 1 4 12 12 34 39 49 18 5 6 24 26 35 36 36 28 55 61 86 19 56 5 22 51 40 5 0 8 14 10 13 3 3
44 36 16 11 4 10 3 55 38 35 4 6 2 0 0 5 19 39 21 10 4 16 44 51 30 20 38 32 112 123 67 29 26 62 18 17 7 20 10 2 1 1 1 3
25 28 24 10 1 9 9 82 23 1 5 5 3 9 1 0 2 21 37 12 14 24 52 49 46 36 84 52 40 42 49 11 25 11 5 6 9 15 17 11 4 1 0 0
15 32 29 11 1 2 8 93 37 5 9 31 6 31 3 0 1 23 31 41 44 40 34 43 44 25 24 18 24 61 13 8 3 8 5 4 4 25 26 22 2 2 2 0
7 32 39 22 9 0 17 101 30 53 35 75 18 4 4 6 0 12 37 49 26 21 25 58 29 13 43 48 57 7 5 7 7 1 8 27 14 26 25 7 8 0 0 0
23 19 30 21 10 3 54 64 128 61 61 41 29 32 32 5 1 20 30 39 38 35 31 48 24 0 37 40 29 3 1 1 10 14 21 6 20 19 17 9 7 4 2 0
2 21 31 22 16 49 46 27 12 21 27 34 37 29 9 1 13 36 40 36 34 38 24 19 15 28 42 42 29 3 0 0 8 14 18 11 5 8 22 25 12 6 3 0
10 18 25 25 16 29 11 1 15 24 10 28 43 20 42 4 17 13 7 13 23 35 22 26 45 49 101 62 2 0 0 1 6 9 5 5 8 8 9 10 7 1 0 0
40 18 27 50 51 51 23 39 43 58 8 53 30 8 52 24 53 17 14 26 23 16 33 16 48 61 39 6 0 0 0 0 1 5 5 4 3 8 7 6 3 0 0 0
15 34 50 20 9 42 57 1 0 3 1 39 32 6 56 87 145 80 41 27 22 39 23 33 83 7 2 0 0 0 0 0 0 4 5 0 1 0 0 0 0 0 0 0
63 37 27 42 50 76 48 23 22 48 51 10 5 33 150 93 107 13 22 38 52 15 45 47 39 7 7 1 1 0 0 0 0 0 0 0 0 0 0 0 0 0 0 2
48 34 14 19 32 23 42 77 30 22 9 58 29 78 99 157 147 109 16 35 27 12 116 48 11 10 3 2 1 1 0 0 0 0 1 1 1 0 0 0 1 2 2 2
22 49 11 10 6 66 17 26 23 55 108 159 104 4 33 135 108 65 1 1 6 158 123 7 6 5 1 1 0 0 0 0 0 1 2 2 1 0 0 1 3 3 0 0
35 45 18 26 7 26 58 132 227 526 615 313 47 63 154 172 23 167 0 29 22 72 112 4 6 5 2 0 0 0 2 2 2 2 2 2 1 2 4 2 6 1 1 0
21 36 16 14 12 6 8 8 93 145 268 147 133 123 82 93 58 5 23 16 16 3 4 8 8 3 2 2 1 2 2 2 3 2 2 3 3 2 3 4 5 2 0 2
21 9 11 6 11 6 22 8 4 4 167 110 233 80 4 8 25 12 31 10 13 6 6 9 5 3 2 2 4 6 5 4 4 4 3 2 2 1 2 1 1 1 1 0
6 12 7 8 16 28 6 15 5 1 20 200 67 36 26 11 4 3 0 3 5 7 14 9 4 4 4 2 5 5 5 5 6 5 5 3 0 2 6 5 6 0 0 0

GFSNW_con_sbcape_117.txt.gz
CAPE
7 0 0 0 0 0 0 0 0 0 0 0 0 0 0 0 0 4 0 2 0 0 0 0 0 0 9 0 2 1 18 0 3 0 0 0 22 2 0 0 0 0 0 1
0 0 0 0 0 0 0 0 0 0 0 0 0 1 0 0 0 0 1 1 12 2 0 0 0 4 0 0 0 14 11 1 0 1 0 13 0 0 0 0 1 0 0 38
0 0 0 0 0 0 0 0 0 0 0 0 0 0 1 0 3 0 0 6 15 0 0 0 0 0 0 0 0 54 30 34 2 0 0 8 3 33 68 11 0 0 13 42
5 0 0 0 0 0 0 0 0 0 4 0 0 0 0 0 2 1 0 0 0 0 0 0 0 0 0 0 0 0 0 0 15 4 13 3 11 31 17 17 16 0 40 60
7 0 0 0 0 0 0 0 0 0 0 0 0 0 0 0 0 0 0 0 0 0 0 6 0 0 0 0 0 0 0 0 0 8 0 0 6 6 13 35 41 21 14 108
3 0 0 0 0 0 0 0 0 0 0 0 0 0 0 2 1 0 1 0 0 0 2 0 0 0 0 0 0 0 0 3 0 2 11 4 13 9 8 3 33 50 9 20
4 0 0 0 0 0 0 0 0 0 0 0 0 2 0 3 3 1 0 1 2 0 0 0 0 0 0 0 0 6 4 2 0 0 0 9 5 1 4 4 11 6 12 16
6 0 0 0 0 0 0 1 0 0 0 0 0 9 6 0 2 11 14 13 2 0 0 0 0 0 4 27 13 2 15 17 2 3 0 20 0 0 1 4 17 15 16 4
27 16 7 0 0 0 0 0 0 0 0 0 0 0 7 0 0 0 15 0 0 0 0 0 0 0 10 24 44 0 13 15 11 9 1 1 4 1 0 0 5 15 6 10
31 38 21 0 0 0 0 0 0 0 0 0 0 1 0 1 0 0 0 0 0 0 0 0 2 0 12 2 0 2 0 0 0 0 6 9 8 1 0 0 20 9 13 11
46 37 22 8 0 1 0 3 2 0 1 0 0 0 1 0 0 0 0 0 0 0 0 3 0 1 0 1 39 26 5 0 3 0 0 1 18 0 6 11 19 18 10 6
41 47 31 13 11 3 0 7 25 4 0 0 0 0 0 0 0 0 0 0 0 0 0 0 0 0 2 0 35 0 2 6 1 0 3 17 12 20 13 10 1 1 3 2
43 50 21 17 8 2 0 8 0 0 1 0 0 0 0 0 0 0 5 0 3 21 4 0 6 6 0 3 0 1 13 0 0 5 7 4 2 5 11 9 13 1 0 0
35 23 37 18 7 2 0 3 1 0 4 1 0 4 4 1 0 0 0 2 2 1 0 0 2 4 0 0 0 12 0 0 0 1 0 8 2 14 13 5 2 0 0 0
2 4 31 14 9 2 0 0 11 0 2 9 0 0 0 0 0 0 2 5 3 6 1 2 2 0 0 0 0 2 1 3 0 0 1 7 4 18 8 1 5 1 0 0
15 9 34 24 17 11 0 0 0 0 20 7 0 0 2 1 0 3 11 1 0 0 0 0 0 0 0 2 2 0 0 0 0 1 7 3 11 12 13 4 6 4 0 0
46 36 33 27 34 5 1 7 0 2 21 12 0 0 0 0 0 0 0 1 1 1 1 0 0 0 8 16 7 0 0 0 3 14 13 1 1 4 10 20 28 2 0 0
42 41 40 33 30 7 0 0 1 3 6 18 1 0 6 0 2 0 0 1 6 0 0 0 0 0 8 7 0 0 0 0 4 0 0 1 4 1 2 2 3 2 2 2
34 35 30 21 9 0 0 30 26 1 3 14 4 2 11 1 4 0 0 1 4 0 3 0 1 2 4 2 0 0 0 0 0 0 0 0 0 2 1 2 3 2 1 0
64 10 5 4 0 58 28 24 8 1 1 17 11 0 0 1 0 1 4 11 6 8 0 0 5 0 4 0 0 0 0 0 0 0 0 0 0 0 0 0 0 0 0 0
14 8 0 3 49 13 9 0 1 3 16 0 0 0 0 0 7 0 0 4 1 6 0 1 0 2 3 0 0 0 0 0 0 0 0 0 0 0 0 0 0 0 0 1
0 0 20 7 7 0 0 9 2 4 0 0 0 0 0 7 0 2 1 0 1 1 1 0 0 1 0 0 0 0 0 0 0 0 0 0 0 0 0 0 0 1 1 0
9 21 9 2 0 0 0 0 7 1 0 0 1 0 16 5 4 0 0 0 0 0 7 0 0 0 0 0 0 0 0 0 0 0 0 0 0 0 0 0 0 0 0 0
0 0 0 0 0 1 0 1 0 14 45 1 2 4 6 7 0 0 0 0 1 0 0 0 0 0 0 0 0 0 0 0 0 0 0 0 0 0 0 0 0 0 0 0
2 11 0 5 0 0 0 0 5 99 0 0 17 38 0 6 0 0 0 1 2 0 0 0 0 0 0 0 0 0 0 0 0 0 0 0 0 0 0 0 0 0 0 0
4 2 0 0 1 0 1 0 0 0 0 16 10 0 0 0 0 1 0 2 0 0 0 0 0 0 0 0 0 0 0 0 0 0 0 0 0 0 0 0 0 0 0 0
9 4 0 2 0 1 0 0 0 0 0 0 1 0 0 3 0 8 0 0 0 0 0 0 0 0 0 0 0 0 0 0 0 0 0 0 0 0 0 0 0 0 0 0

GFSNW_con_sbcape_120.txt.gz
CAPE
3 9 0 6 0 0 0 0 0 0 0 0 0 0 0 0 0 0 0 0 0 0 0 0 0 0 0 0 0 0 0 57 5 0 0 0 0 16 3 11 5 0 0 5
21 3 5 0 0 0 0 0 0 0 0 0 0 0 0 0 0 0 0 0 5 0 0 0 0 0 0 0 0 0 0 1 0 0 0 0 0 0 0 0 0 0 2 7
14 7 0 0 0 0 0 0 0 0 0 0 0 0 0 0 0 0 0 3 3 0 0 0 0 0 0 0 0 9 0 0 18 9 3 3 3 0 0 1 0 0 5 6
13 9 0 0 0 0 0 0 0 0 0 0 0 0 0 0 0 0 0 0 0 0 0 0 0 0 0 0 0 0 0 0 0 0 0 6 17 8 0 11 31 0 32 40
4 0 0 0 0 0 0 0 0 0 0 0 0 0 0 0 0 0 0 0 0 0 0 0 0 0 0 0 0 0 0 0 0 0 2 2 8 16 1 1 1 48 2 19
0 0 0 0 0 0 0 0 0 0 0 0 0 0 0 0 0 0 0 0 0 0 0 0 0 0 0 0 0 0 0 0 0 0 0 8 0 5 10 4 5 10 7 21
0 0 0 0 0 0 0 0 0 0 0 0 0 1 0 0 0 0 0 0 0 0 0 0 0 0 0 0 0 0 0 0 0 0 0 6 18 0 16 3 12 3 10 8
0 0 0 0 0 0 0 0 0 0 0 0 0 0 0 0 0 0 0 0 0 0 0 0 0 0 0 0 0 0 0 0 0 0 0 24 0 0 12 20 19 25 16 10
20 2 3 0 0 0 0 0 0 0 0 0 0 0 0 0 0 0 0 0 0 0 0 0 0 0 0 0 1 0 0 0 0 0 0 0 2 1 0 0 8 16 4 9
32 5 13 2 0 0 0 0 0 0 0 0 0 0 0 0 0 0 0 0 0 0 0 0 0 0 0 0 1 0 0 0 0 0 0 2 8 3 0 0 13 19 21 15
40 21 17 6 7 3 0 0 0 0 0 0 0 0 0 0 0 0 0 0 0 0 0 0 0 0 0 0 8 4 1 0 0 0 0 0 6 0 2 12 3 4 7 8
45 37 31 12 13 0 0 1 0 0 0 0 0 0 0 0 0 0 0 0 0 0 0 0 0 0 0 0 1 4 3 4 0 4 3 8 4 18 16 16 10 0 0 0
41 42 17 20 14 0 0 0 0 0 0 0 0 0 0 0 0 0 0 0 0 2 0 0 0 0 0 0 0 0 2 0 0 4 5 3 2 1 7 15 4 2 7 0
46 45 44 28 7 2 0 0 1 0 1 0 0 0 0 0 0 0 0 0 1 0 0 0 0 0 0 0 0 2 1 0 0 0 6 2 2 4 2 1 0 0 0 0
22 25 27 8 6 0 0 0 0 0 0 0 0 0 0 0 0 0 0 0 0 0 0 0 1 0 0 0 0 0 0 1 0 0 0 6 0 6 2 0 1 0 0 0
10 20 21 14 13 1 0 0 0 0 16 0 0 0 0 0 0 0 3 0 0 0 0 0 0 0 0 0 0 0 0 0 2 2 0 0 0 3 10 1 3 1 0 3
29 36 39 24 28 0 0 0 4 2 12 1 0 0 0 0 0 0 0 0 0 0 0 0 0 0 0 4 2 0 0 0 0 2 2 0 1 2 3 2 18 4 2 4
27 31 39 37 19 0 0 0 6 15 9 7 1 0 0 0 0 0 0 0 2 0 0 0 0 0 0 1 0 0 0 0 0 0 0 0 0 0 1 1 4 1 2 3
14 28 23 0 0 0 0 1 25 0 2 2 2 1 3 0 0 0 0 0 0 0 0 0 0 0 0 0 0 0 0 0 0 1 0 0 0 0 0 0 0 0 1 1
33 0 0 0 0 0 0 12 16 2 3 9 6 0 0 0 0 0 0 0 2 2 0 0 0 0 1 1 0 0 0 0 0 0 0 0 0 0 0 0 0 0 0 0
0 0 0 0 1 2 0 0 1 1 10 0 0 0 0 0 0 0 0 1 0 0 0 0 1 0 0 0 0 0 0 0 0 0 0 0 0 0 0 0 0 0 0 0
0 0 0 0 1 0 0 0 2 13 0 0 0 0 0 0 0 0 0 0 0 1 0 0 0 0 0 0 0 0 0 0 0 0 0 0 0 0 0 0 0 0 0 0
0 0 1 1 0 4 6 0 0 0 0 0 0 0 0 10 0 0 0 0 0 0 0 0 0 0 0 0 0 0 0 0 0 0 0 0 0 0 0 0 0 0 0 0
0 0 0 0 0 0 0 0 0 0 0 0 0 0 32 0 0 0 0 0 0 0 0 0 0 0 0 0 0 0 0 0 0 0 0 0 0 0 0 0 0 0 0 0
0 1 0 0 0 1 0 0 0 0 0 0 5 7 0 0 0 0 0 4 1 0 0 0 0 0 0 0 0 0 0 0 0 0 0 0 0 0 0 0 0 0 0 0
0 0 0 0 0 0 0 0 0 0 0 0 0 1 0 0 0 1 0 0 0 0 0 0 0 0 0 0 0 0 0 0 0 0 0 0 0 0 0 0 0 0 0 0
0 0 0 0 0 0 0 0 1 0 0 1 0 0 1 0 0 0 0 0 0 0 0 0 0 0 0 0 0 0 0 0 0 0 0 0 0 0 0 0 0 0 0 0

GFSNW_con_sbcape_123.txt.gz
CAPE
6 7 3 4 0 0 0 0 0 0 0 0 0 0 0 0 0 0 0 0 0 0 0 0 0 0 0 0 0 0 0 2 2 0 0 0 1 3 9 3 11 31 31 13
5 7 10 5 0 0 0 0 0 0 0 0 0 0 0 0 0 0 0 0 0 0 0 0 0 0 0 0 0 0 0 0 0 0 0 0 0 0 3 18 17 17 12 2
22 7 8 1 0 0 0 0 0 0 0 0 0 0 0 0 0 0 0 0 0 0 0 0 0 0 0 0 0 0 0 0 0 0 0 6 10 0 1 6 6 5 15 8
15 8 0 0 0 0 0 0 0 0 0 0 0 0 0 0 0 0 0 0 0 0 0 0 0 0 0 0 0 0 0 0 0 0 0 5 16 19 3 4 2 1 13 12
0 0 0 0 0 0 0 0 0 0 0 0 0 0 0 0 0 0 0 0 0 0 0 0 0 0 0 0 0 0 0 0 0 0 3 0 0 1 0 0 2 19 9 14
4 0 0 0 0 0 0 0 0 0 0 0 0 0 0 0 0 0 0 0 0 0 0 0 0 0 0 0 0 0 0 0 0 0 0 30 0 4 10 7 7 16 16 23
6 0 0 0 0 0 0 0 0 0 0 0 0 0 0 0 0 0 0 0 0 0 0 0 0 0 0 0 0 0 0 0 0 0 0 0 5 2 17 7 12 6 13 15
5 0 0 0 0 0 0 0 0 0 0 0 0 0 0 0 0 0 0 0 0 0 0 0 0 0 0 0 0 0 0 0 0 0 0 0 1 0 11 17 15 11 7 14
2 0 0 0 0 0 0 0 0 0 0 0 0 0 0 0 0 0 0 0 0 0 0 0 0 0 0 0 0 0 0 0 0 0 0 0 0 2 1 2 4 15 11 7
6 0 0 0 0 0 0 0 0 0 0 0 0 0 0 0 0 0 0 0 0 0 0 0 0 0 0 0 0 0 0 0 0 0 2 1 6 2 0 0 4 6 11 12
23 4 2 0 0 0 0 0 0 0 0 0 0 0 0 0 0 0 0 0 0 0 0 0 0 0 0 0 0 0 2 1 0 0 0 0 2 0 4 14 6 3 0 2
42 24 14 5 0 0 0 0 0 0 0 0 0 0 0 0 0 0 0 0 0 0 0 0 0 0 0 0 0 0 0 4 0 4 1 4 6 23 29 14 10 12 1 0
52 38 27 15 0 0 0 0 0 0 0 0 0 0 0 0 0 0 0 0 0 0 0 0 0 0 0 0 0 0 0 0 0 3 2 1 1 0 3 5 2 1 6 0
50 47 37 18 2 0 0 0 0 0 0 0 0 0 0 0 0 0 0 0 0 0 0 0 0 0 0 0 0 0 0 0 0 0 2 1 0 0 1 1 0 0 0 0
52 42 27 11 1 0 0 0 0 0 0 0 0 0 0 0 0 0 0 0 0 0 0 0 0 0 0 0 0 0 0 0 0 0 1 1 1 1 0 0 1 1 3 1
42 37 10 2 2 0 0 0 0 0 3 0 0 0 0 0 0 0 0 0 0 0 0 0 0 0 0 0 1 0 0 0 2 5 0 0 0 0 4 12 1 1 1 3
52 38 25 13 2 0 0 0 4 0 0 0 0 0 0 0 0 0 0 1 0 0 0 0 0 0 0 0 1 0 0 0 0 0 0 0 0 2 1 2 4 5 2 1
46 45 38 15 0 0 0 0 6 9 7 3 0 0 2 0 0 0 0 1 2 2 4 0 0 0 0 2 1 1 0 0 0 0 0 0 0 0 0 1 0 0 0 1
46 41 3 0 0 0 0 11 0 0 1 0 0 0 0 0 0 0 0 0 0 0 0 0 0 0 0 0 1 0 0 0 0 0 0 0 0 0 0 0 0 0 0 0
0 0 0 0 0 0 1 1 0 6 2 1 2 0 0 0 0 0 0 0 0 1 0 0 0 0 1 0 0 0 0 0 0 0 0 0 0 0 0 0 0 0 0 0
0 0 0 0 0 0 0 0 0 3 2 3 0 0 0 0 0 0 0 0 0 0 0 0 0 0 0 0 0 0 0 0 0 0 0 0 0 0 0 0 0 0 0 0
0 0 0 0 0 0 0 0 0 0 0 0 0 0 0 0 0 0 0 0 0 5 0 0 0 0 0 0 0 0 0 0 0 0 0 0 0 0 0 0 0 0 0 0
0 0 0 1 0 0 0 0 7 0 0 0 0 0 0 0 0 0 0 1 0 0 0 0 0 0 0 0 0 0 0 0 0 0 0 0 0 0 0 0 0 0 0 0
0 0 0 0 0 0 0 0 0 0 0 0 0 0 9 0 0 0 0 0 1 0 0 0 0 0 0 0 0 0 0 0 0 0 0 0 0 0 0 0 0 0 0 0
0 0 0 0 0 0 0 0 0 0 0 0 1 0 0 0 0 0 0 0 3 0 0 0 0 0 0 0 0 0 0 0 0 0 0 0 0 0 0 0 0 0 0 0
0 0 0 0 0 0 0 8 5 0 0 0 0 0 0 0 0 0 0 0 0 0 0 0 0 0 0 0 0 0 0 0 0 0 0 0 0 0 0 0 0 0 0 0
0 0 0 0 0 0 0 0 0 0 0 3 0 0 1 0 0 0 0 0 0 0 0 0 0 0 0 0 0 0 0 0 0 0 0 0 0 0 0 0 0 0 0 0